Simultaneous Nadir Overpasses (SNOs) Predictions

Prediction of SNOs between GOES-17 and NOAA-20 Satellite Orbit:

Table of predicted SNOs for the next 14.0 days since TLE Epoch: 10/2/2020
Index Date Time (GOES-17) GOES-17 Lat,Lon NOAA-20 Lat,Lon Distance(km) Time Diff (sec)
1 10/03/2020 10:36:22 0.04,-137.21 0.24,-138.25 117.64 80
2 10/04/2020 10:20:18 0.04,-137.21 -0.74,-133.71 398.73 80
3 10/05/2020 22:39:35 -0.04,-137.20 -0.46,-139.02 207.10 80
4 10/06/2020 22:23:32 -0.04,-137.20 0.58,-134.50 308.75 80
5 10/08/2020 10:42:40 0.03,-137.20 0.62,-139.77 292.54 80
6 10/09/2020 10:26:37 0.03,-137.19 -0.42,-135.24 222.66 80
7 10/10/2020 22:45:54 -0.02,-137.17 -0.77,-140.55 384.96 80
8 10/11/2020 22:29:49 -0.02,-137.16 0.21,-136.02 129.85 80
9 10/13/2020 10:48:59 0.01,-137.15 0.94,-141.30 472.75 80
10 10/14/2020 10:32:54 0.01,-137.14 -0.05,-136.76 41.81 80
